{"data":{"norad_id":63568,"intl_designator":"2025-075W","name":"STARLINK-32940","alt_names":[],"object_type":"PAYLOAD","status":"ACTIVE","operator":null,"country":"US","launch_date":"2025-04-13","launch_site_code":"AFETR","launch_vehicle":null,"mission":null,"orbit_class":"UNKNOWN","rcs_meters":null,"size_class":null,"mass_kg":null,"dimensions":null,"purposes":["comms"],"wikipedia_slug":null,"has_3d_model":false,"image_url":null,"decayed_at":null,"tle_current":{"epoch":"2026-09-20T23:16:25.163616Z","epoch_age_seconds":114978,"freshness":"FRESH","line1":"1 63568U 25075W   26263.96973569  .00004352  00000+0  16756-3 0  9991","line2":"2 63568  42.9984 247.7069 0001268 276.0110  84.0597 15.27582293 81797","mean_motion":15.27582293,"eccentricity":0.0001268,"inclination_deg":42.9984,"raan_deg":247.7069,"arg_perigee_deg":276.011,"mean_anomaly_deg":84.0597,"bstar":0.00016756,"rev_number":8179,"period_min":94.266607213154,"perigee_km":482.17223245498,"apogee_km":483.9122275077,"semimajor_km":6861.1792299813,"source":"CELESTRAK","updated_at":"2026-09-21T09:00:35.044142Z"}}}